2016-04-29 00:01:15 r, 18.40m,0000000004Hz,0000118052c,0000000.256s, 022.2C,00002195
2016-04-29 00:11:15 r, 18.41m,0000000004Hz,0000118950c,0000000.258s, 022.2C,00002195
2016-04-29 00:21:16 r, 18.42m,0000000004Hz,0000119902c,0000000.260s, 021.9C,00002195
2016-04-29 00:31:15 r, 18.42m,0000000003Hz,0000119932c,0000000.260s, 021.9C,00002195
2016-04-29 00:41:15 r, 18.43m,0000000004Hz,0000120876c,0000000.262s, 021.5C,00002195
2016-04-29 00:51:15 r, 18.43m,0000000004Hz,0000121066c,0000000.263s, 021.5C,00002195
2016-04-29 01:01:15 r, 18.43m,0000000004Hz,0000122138c,0000000.265s, 021.2C,00002195
2016-04-29 01:11:16 r, 18.43m,0000000004Hz,0000121904c,0000000.265s, 021.2C,00002195
2016-04-29 01:21:16 r, 18.43m,0000000004Hz,0000122484c,0000000.266s, 020.9C,00002195
2016-04-29 01:31:15 r, 18.43m,0000000004Hz,0000122754c,0000000.266s, 020.9C,00002195
2016-04-29 01:41:15 r, 18.43m,0000000003Hz,0000122933c,0000000.267s, 020.9C,00002195
2016-04-29 01:51:17 r, 18.45m,0000000003Hz,0000124822c,0000000.271s, 020.6C,00002195
2016-04-29 02:01:15 r, 18.46m,0000000003Hz,0000125781c,0000000.273s, 020.6C,00002195
2016-04-29 02:11:15 r, 18.46m,0000000003Hz,0000125694c,0000000.273s, 020.3C,00002195
2016-04-29 02:21:16 r, 18.46m,0000000004Hz,0000125529c,0000000.272s, 020.3C,00002195
2016-04-29 02:31:15 r, 18.45m,0000000004Hz,0000124796c,0000000.271s, 020.3C,00002195
2016-04-29 02:41:15 r, 18.45m,0000000004Hz,0000124726c,0000000.271s, 019.9C,00002195
2016-04-29 02:51:16 r, 18.44m,0000000003Hz,0000123865c,0000000.269s, 019.9C,00002195
2016-04-29 03:01:15 r, 18.44m,0000000004Hz,0000123773c,0000000.269s, 019.6C,00002195
2016-04-29 03:11:16 r, 18.43m,0000000004Hz,0000122848c,0000000.267s, 019.6C,00002195
2016-04-29 03:21:15 r, 18.42m,0000000004Hz,0000121124c,0000000.263s, 019.6C,00002195
2016-04-29 03:31:17 r, 18.42m,0000000004Hz,0000120915c,0000000.262s, 019.3C,00002195
2016-04-29 03:41:15 r, 18.41m,0000000004Hz,0000120002c,0000000.260s, 019.3C,00002195
2016-04-29 03:51:18 r, 18.40m,0000000004Hz,0000119009c,0000000.258s, 019.3C,00002195
2016-04-29 04:01:16 r, 18.40m,0000000004Hz,0000118828c,0000000.258s, 019.0C,00002195
2016-04-29 04:11:15 r, 18.39m,0000000004Hz,0000117988c,0000000.256s, 019.0C,00002195
2016-04-29 04:21:15 r, 18.37m,0000000004Hz,0000116226c,0000000.252s, 019.0C,00002195
2016-04-29 04:31:16 r, 18.34m,0000000004Hz,0000113244c,0000000.246s, 018.6C,00002195
2016-04-29 04:41:15 r, 18.24m,0000000005Hz,0000103039c,0000000.224s, 018.6C,00002195
2016-04-29 04:51:16 r, 18.01m,0000000006Hz,0000083387c,0000000.181s, 018.6C,00002195
2016-04-29 05:01:16 r, 17.50m,0000000009Hz,0000051992c,0000000.113s, 018.3C,00002195
2016-04-29 05:11:15 r, 16.61m,0000000020Hz,0000022823c,0000000.050s, 018.3C,00002195
2016-04-29 05:21:16 r, 15.20m,0000000074Hz,0000006263c,0000000.014s, 018.3C,00002195
2016-04-29 05:31:15 r, 13.36m,0000000400Hz,0000000000c,0000000.000s, 018.3C,00002195
2016-04-29 05:41:15 r, 11.53m,0000002176Hz,0000000000c,0000000.000s, 018.0C,00002195
2016-04-29 05:51:17 r, 09.84m,0000010350Hz,0000000000c,0000000.000s, 018.0C,00002195
2016-04-29 06:01:16 r, 08.46m,0000036950Hz,0000000000c,0000000.000s, 018.0C,00002195
2016-04-29 06:11:15 r, 07.45m,0000093179Hz,0000000000c,0000000.000s, 017.7C,00002195
2016-04-29 06:21:15 r, 06.74m,0000178822Hz,0000000000c,0000000.000s, 017.7C,00002195
2016-04-29 06:31:17 r, 06.26m,0000279455Hz,0000000000c,0000000.000s, 018.0C,00002195
2016-04-29 06:41:15 r, 05.92m,0000381039Hz,0000000000c,0000000.000s, 018.0C,00002195
2016-04-29 06:51:15 r, 00.00m,0000476059Hz,0000000000c,0000000.000s, 018.3C,00002195
2016-04-29 07:01:17 r, 00.00m,0000562777Hz,0000000000c,0000000.000s, 018.3C,00002195
2016-04-29 07:11:15 r, 00.00m,0000562530Hz,0000000000c,0000000.000s, 018.3C,00002195
2016-04-29 07:21:16 r, 00.00m,0000562678Hz,0000000000c,0000000.000s, 018.6C,00002195
2016-04-29 07:31:15 r, 00.00m,0000562639Hz,0000000000c,0000000.000s, 019.0C,00002195
2016-04-29 07:41:18 r, 00.00m,0000562595Hz,0000000000c,0000000.000s, 019.3C,00002195
2016-04-29 07:51:16 r, 00.00m,0000562656Hz,0000000000c,0000000.000s, 019.6C,00002195
2016-04-29 08:01:18 r, 00.00m,0000562690Hz,0000000000c,0000000.000s, 019.9C,00002195
2016-04-29 08:11:15 r, 00.00m,0000562692Hz,0000000000c,0000000.000s, 020.3C,00002195
2016-04-29 08:21:15 r, 00.00m,0000562807Hz,0000000000c,0000000.000s, 020.9C,00002195
2016-04-29 08:31:16 r, 00.00m,0000562862Hz,0000000000c,0000000.000s, 021.5C,00002195
2016-04-29 08:41:15 r, 00.00m,0000562946Hz,0000000000c,0000000.000s, 021.9C,00002195
2016-04-29 08:51:18 r, 00.00m,0000563031Hz,0000000000c,0000000.000s, 022.5C,00002195
2016-04-29 09:01:16 r, 00.00m,0000563274Hz,0000000000c,0000000.000s, 023.5C,00002195
2016-04-29 09:11:15 r, 00.00m,0000563660Hz,0000000000c,0000000.000s, 026.7C,00002195
2016-04-29 09:21:17 r, 00.00m,0000564095Hz,0000000000c,0000000.000s, 029.6C,00002195
2016-04-29 09:31:16 r, 00.00m,0000564224Hz,0000000000c,0000000.000s, 032.2C,00002195
2016-04-29 09:41:15 r, 00.00m,0000564460Hz,0000000000c,0000000.000s, 034.1C,00002195
2016-04-29 09:51:15 r, 00.00m,0000564679Hz,0000000000c,0000000.000s, 036.0C,00002195
2016-04-29 10:01:18 r, 00.00m,0000564724Hz,0000000000c,0000000.000s, 037.0C,00002195
2016-04-29 10:11:15 r, 00.00m,0000564870Hz,0000000000c,0000000.000s, 038.3C,00002195
2016-04-29 10:21:15 r, 00.00m,0000565020Hz,0000000000c,0000000.000s, 039.6C,00002195
2016-04-29 10:31:18 r, 00.00m,0000565068Hz,0000000000c,0000000.000s, 040.2C,00002195
2016-04-29 10:41:15 r, 00.00m,0000565103Hz,0000000000c,0000000.000s, 041.2C,00002195
2016-04-29 10:51:16 r, 00.00m,0000565161Hz,0000000000c,0000000.000s, 041.9C,00002195
2016-04-29 11:01:16 r, 00.00m,0000565184Hz,0000000000c,0000000.000s, 042.2C,00002195
2016-04-29 11:11:15 r, 00.00m,0000565203Hz,0000000000c,0000000.000s, 042.5C,00002195
2016-04-29 11:21:16 r, 00.00m,0000565213Hz,0000000000c,0000000.000s, 043.1C,00002195
2016-04-29 11:31:16 r, 00.00m,0000565255Hz,0000000000c,0000000.000s, 043.5C,00002195
2016-04-29 11:41:15 r, 00.00m,0000565335Hz,0000000000c,0000000.000s, 043.5C,00002195
2016-04-29 11:51:17 r, 00.00m,0000565313Hz,0000000000c,0000000.000s, 043.8C,00002195
2016-04-29 12:01:16 r, 00.00m,0000565403Hz,0000000000c,0000000.000s, 044.8C,00002195
2016-04-29 12:11:15 r, 00.00m,0000565483Hz,0000000000c,0000000.000s, 045.1C,00002195
2016-04-29 12:21:17 r, 00.00m,0000565470Hz,0000000000c,0000000.000s, 045.1C,00002195
2016-04-29 12:31:16 r, 00.00m,0000565390Hz,0000000000c,0000000.000s, 045.4C,00002195
2016-04-29 12:41:15 r, 00.00m,0000565461Hz,0000000000c,0000000.000s, 045.7C,00002195
2016-04-29 12:51:16 r, 00.00m,0000565545Hz,0000000000c,0000000.000s, 046.0C,00002195
2016-04-29 13:01:17 r, 00.00m,0000565522Hz,0000000000c,0000000.000s, 046.0C,00002195
2016-04-29 13:11:15 r, 00.00m,0000565455Hz,0000000000c,0000000.000s, 046.4C,00002195
2016-04-29 13:21:16 r, 00.00m,0000565565Hz,0000000000c,0000000.000s, 046.0C,00002195
2016-04-29 13:31:17 r, 00.00m,0000565572Hz,0000000000c,0000000.000s, 046.7C,00002195
2016-04-29 13:41:15 r, 00.00m,0000565515Hz,0000000000c,0000000.000s, 046.4C,00002195
2016-04-29 13:51:16 r, 00.00m,0000565539Hz,0000000000c,0000000.000s, 046.4C,00002195
2016-04-29 14:01:18 r, 00.00m,0000565506Hz,0000000000c,0000000.000s, 046.7C,00002195
2016-04-29 14:11:16 r, 00.00m,0000565575Hz,0000000000c,0000000.000s, 047.0C,00002195
2016-04-29 14:21:15 r, 00.00m,0000565473Hz,0000000000c,0000000.000s, 047.0C,00002195
2016-04-29 14:31:18 r, 00.00m,0000565546Hz,0000000000c,0000000.000s, 046.7C,00002195
2016-04-29 14:41:15 r, 00.00m,0000565498Hz,0000000000c,0000000.000s, 047.0C,00002195
2016-04-29 14:51:16 r, 00.00m,0000565527Hz,0000000000c,0000000.000s, 046.7C,00002195
2016-04-29 15:01:15 r, 00.00m,0000565591Hz,0000000000c,0000000.000s, 046.7C,00002195
2016-04-29 15:11:15 r, 00.00m,0000565527Hz,0000000000c,0000000.000s, 046.7C,00002195
2016-04-29 15:21:15 r, 00.00m,0000565487Hz,0000000000c,0000000.000s, 046.4C,00002195
2016-04-29 15:31:16 r, 00.00m,0000565568Hz,0000000000c,0000000.000s, 046.4C,00002195
2016-04-29 15:41:15 r, 00.00m,0000565552Hz,0000000000c,0000000.000s, 046.7C,00002195
2016-04-29 15:51:17 r, 00.00m,0000565432Hz,0000000000c,0000000.000s, 046.4C,00002195
2016-04-29 16:01:16 r, 00.00m,0000565476Hz,0000000000c,0000000.000s, 046.0C,00002195
2016-04-29 16:11:15 r, 00.00m,0000565387Hz,0000000000c,0000000.000s, 045.7C,00002195
2016-04-29 16:21:16 r, 00.00m,0000565482Hz,0000000000c,0000000.000s, 045.4C,00002195
2016-04-29 16:31:15 r, 00.00m,0000565320Hz,0000000000c,0000000.000s, 044.8C,00002195
2016-04-29 16:41:15 r, 00.00m,0000565324Hz,0000000000c,0000000.000s, 044.4C,00002195
2016-04-29 16:51:15 r, 00.00m,0000565274Hz,0000000000c,0000000.000s, 044.1C,00002195
2016-04-29 17:01:16 r, 00.00m,0000565212Hz,0000000000c,0000000.000s, 043.1C,00002195
2016-04-29 17:11:15 r, 00.00m,0000565208Hz,0000000000c,0000000.000s, 043.1C,00002195
2016-04-29 17:21:15 r, 00.00m,0000565188Hz,0000000000c,0000000.000s, 042.8C,00002195
2016-04-29 17:31:17 r, 00.00m,0000565078Hz,0000000000c,0000000.000s, 042.2C,00002195
2016-04-29 17:41:15 r, 00.00m,0000564950Hz,0000000000c,0000000.000s, 041.5C,00002195
2016-04-29 17:51:18 r, 00.00m,0000564919Hz,0000000000c,0000000.000s, 040.9C,00002195
2016-04-29 18:01:16 r, 00.00m,0000564858Hz,0000000000c,0000000.000s, 040.2C,00002195
2016-04-29 18:11:15 r, 00.00m,0000564775Hz,0000000000c,0000000.000s, 039.6C,00002195
2016-04-29 18:21:15 r, 00.00m,0000564799Hz,0000000000c,0000000.000s, 039.3C,00002195
2016-04-29 18:31:16 r, 00.00m,0000564608Hz,0000000000c,0000000.000s, 038.6C,00002195
2016-04-29 18:41:15 r, 00.00m,0000564582Hz,0000000000c,0000000.000s, 038.0C,00002195
2016-04-29 18:51:15 r, 00.00m,0000564470Hz,0000000000c,0000000.000s, 037.3C,00002195
2016-04-29 19:01:16 r, 00.00m,0000564435Hz,0000000000c,0000000.000s, 036.7C,00002195
2016-04-29 19:11:16 r, 00.00m,0000564347Hz,0000000000c,0000000.000s, 035.7C,00002195
2016-04-29 19:21:15 r, 00.00m,0000564267Hz,0000000000c,0000000.000s, 035.1C,00002195
2016-04-29 19:31:16 r, 00.00m,0000564167Hz,0000000000c,0000000.000s, 034.4C,00002195
2016-04-29 19:41:15 r, 00.00m,0000564075Hz,0000000000c,0000000.000s, 033.8C,00002195
2016-04-29 19:51:15 r, 00.00m,0000564104Hz,0000000000c,0000000.000s, 033.1C,00002195
2016-04-29 20:01:16 r, 00.00m,0000492727Hz,0000000000c,0000000.000s, 032.5C,00002195
2016-04-29 20:11:15 r, 05.90m,0000388797Hz,0000000000c,0000000.000s, 031.9C,00002195
2016-04-29 20:21:15 r, 06.26m,0000280496Hz,0000000000c,0000000.000s, 030.9C,00002195
2016-04-29 20:31:15 r, 06.75m,0000177849Hz,0000000000c,0000000.000s, 030.2C,00002195
2016-04-29 20:41:18 r, 07.46m,0000092000Hz,0000000000c,0000000.000s, 029.6C,00002195
2016-04-29 20:51:15 r, 08.48m,0000036263Hz,0000000000c,0000000.000s, 029.0C,00002195
2016-04-29 21:01:15 r, 09.85m,0000010234Hz,0000000000c,0000000.000s, 028.3C,00002195
2016-04-29 21:11:15 r, 11.53m,0000002186Hz,0000000000c,0000000.000s, 028.0C,00002195
2016-04-29 21:21:15 r, 13.34m,0000000409Hz,0000000000c,0000000.000s, 027.7C,00002195
2016-04-29 21:31:15 r, 15.17m,0000000075Hz,0000006104c,0000000.013s, 027.3C,00002195
2016-04-29 21:41:16 r, 16.59m,0000000020Hz,0000022488c,0000000.049s, 027.0C,00002195
2016-04-29 21:51:15 r, 17.46m,0000000009Hz,0000049937c,0000000.108s, 027.0C,00002195
2016-04-29 22:01:16 r, 17.95m,0000000006Hz,0000078743c,0000000.171s, 026.7C,00002195
2016-04-29 22:11:15 r, 18.19m,0000000005Hz,0000097876c,0000000.212s, 026.4C,00002195
2016-04-29 22:21:15 r, 18.27m,0000000005Hz,0000105574c,0000000.229s, 026.4C,00002195
2016-04-29 22:31:15 r, 18.30m,0000000005Hz,0000109284c,0000000.237s, 026.1C,00002195
2016-04-29 22:41:16 r, 18.32m,0000000005Hz,0000111139c,0000000.241s, 026.1C,00002195
2016-04-29 22:51:15 r, 18.32m,0000000004Hz,0000111299c,0000000.242s, 025.7C,00002195
2016-04-29 23:01:18 r, 18.33m,0000000004Hz,0000112285c,0000000.244s, 025.4C,00002195
2016-04-29 23:11:16 r, 18.34m,0000000004Hz,0000113363c,0000000.246s, 025.4C,00002195
2016-04-29 23:21:15 r, 18.35m,0000000004Hz,0000113981c,0000000.247s, 025.1C,00002195
2016-04-29 23:31:18 r, 18.36m,0000000004Hz,0000114999c,0000000.250s, 025.1C,00002195
2016-04-29 23:41:15 r, 18.34m,0000000004Hz,0000113259c,0000000.246s, 024.8C,00002195
2016-04-29 23:51:15 r, 18.36m,0000000004Hz,0000114219c,0000000.248s, 024.4C,00002195
